NOAA 16 DEB, 41304

Orbit data source: Space-Track

NOAA 16 DEB, 41304 is space debris in SSO originally from a launch on Thu, 21 Sep 2000 UTC launched from the Air Force Western Test Range (AFWTR). Debris objects in space refer to the collection of defunct objects orbiting the Earth. Examples of debris include non-operational satellites, rocket bodies, and fragments generated from explosions, collisions, or faulty payload assembly.

Loading next visibility...
Identifier
41304, 2000-055HG
Orbit
SSO
Country
Flag of USUS
Related business
Manufacturer
Unknown
Mission
Spacecraft
Bus & Motor
Unknown
Mass
Unknown
Launch date (UTC)
2000-09-21 (25 years ago)
Launch vehicle
Unknown
Launch site
Air Force Western Test Range (AFWTR)
Object type
Payload
Rocket body
Debris
Shape & HBR
Unknown shape, 0.1 m
Radar Cross Section
Small (<0.1 m²)

Expand to show TLE details & history
Last TLE update: 2 weeks ago

TLE from 2 weeks ago
0 NOAA 16 DEB
1 41304U 00055HG  26052.90651318  .00006483  00000-0  22669-2 0  9998
2 41304  99.0650 214.2997 0034131 247.9669 111.7888 14.35205050523955
Epoch: 2026-02-21T21:45Z
TLE epoch observation values (Epoch: 2026-02-21T21:45:22.738Z)
Latitude
-0.00003°
Longitude
96.13259°
Altitude
786.444 km
Speed
7.456 km/s
True Right ascension
14h 17m 11s
True Declination
0° 00' 00"
Sunlit
Object was in full shadow at epoch
Visualization orbit readout
Latitude
Unknown
Longitude
Unknown
Altitude
Unknown
Speed
Unknown
Apparent Right ascension
Unknown
Apparent Declination
Unknown
Sunlit
N/A
Visualization observer readout
Local Sidereal Time
16:26:18
Azimuth
Unknown
Elevation
Unknown
Doppler factor
Unknown
Orbital elements
Apogee altitude
795.943 km
Perigee altitude
747.138 km
Semi-major axis
7,149.678 km
Eccentricity
0.00341
Inclination
99.065°
RAAN
214.2997°
Arg. of periapsis
247.9669°
True anomaly
112.15139°
Mean anomaly
111.7888°
Eccentric anomaly
111.97015°
Mean motion
3.59016 °/min
Orbital period
100.27 mins
BSTAR
0.0022669
Loading maneuver chart data...
Computing Atmospheric mass density...
Loading historical data...
Loading historical data...
Loading historical data...
Loading historical data...
Loading historical data...
Loading historical data...
Loading historical data...

Documentation

Showing up to 5 results
|